Weather Roundup
Issued by NWS Springfield, MO

Home | Current Version | Previous Version | Text Only | Print | Product List | Glossary On
Versions: 1 2 3 4 5 6 7 8 9 10 11 12 13 14 15 16 17 18 19 20 21 22 23 24 25 26 27 28 29 30 31 32 33 34 35 36 37 38 39 40 41 42 43 44 45 46 47 48 49 50
818
NZUS99 KSGF 011607
HRRSGF

HOURLY WEATHER
NATIONAL WEATHER SERVICE SPRINGFIELD MO
1000 AM CST WED MAR 01 2017

......SGF CWA......

CITY           SKY/WX    TMP DP  RH WIND       PRES   REMARKS
SPRINGFIELD    MOSUNNY   45  33  63 W17G23    30.03R
JOPLIN         SUNNY     45  32  60 NW17G28   30.11R
WEST PLAINS    SUNNY     51  33  50 W17G30    29.97R
ROLLA          LGT RAIN  44  34  67 W23G33    29.92R
OSAGE BEACH    CLOUDY    43  34  70 NW14G22   30.00R
BRANSON        SUNNY     45  32  61 W12G18    30.05R

......SURROUNDING SGF CWA......

CITY           SKY/WX    TMP DP  RH WIND       PRES   REMARKS
CHANUTE        SUNNY     44  28  53 NW16      30.13R
PARSONS        SUNNY     46  29  51 NW16      30.15R
COFFEYVILLE    SUNNY     45  27  49 NW18      30.15R
EMPORIA        SUNNY     41  25  53 NW18G25   30.13R
GROVE OK       SUNNY     48  32  53 NW13G18   30.16R
ROGERS AR      SUNNY     46  31  55 NW13G28   30.11R
SILOAM SPRINGS SUNNY     46  27  46 NW18G28   30.13R
HARRISON AR    SUNNY     48  32  53 NW15G24   30.05R
NEAR YELLVILLE SUNNY     52  30  43 NW18      30.01R

......KANSAS AND MISSOURI......

CITY           SKY/WX    TMP DP  RH WIND       PRES   REMARKS
KANSAS CTY INT MOSUNNY   41  28  60 W18       30.03R
DOWNTOWN KC    MOSUNNY   42  28  57 NW17G25   30.05R
COLUMBIA       CLOUDY    43  34  70 W18G29    29.94R
SEDALIA        PTSUNNY   43  33  68 W21G26    30.00R
ST JOSEPH      PTSUNNY   41  29  62 NW26G37   30.04R
ST LOUIS       CLOUDY    47  38  71 W23G33    29.85R
SPIRIT OF STL  CLOUDY    46  38  73 W20       29.86R
KIRKSVILLE     CLOUDY    38  31  76 W21G33    29.91R WCI  28
WICHITA        SUNNY     44  17  33 NW20      30.18R
TOPEKA         SUNNY     41  29  62 W13G22    30.10R
OLATHE         MOSUNNY   40  29  64 NW20G28   30.05R WCI  30

......TENNESSEE......

CITY           SKY/WX    TMP DP  RH WIND       PRES   REMARKS
MEMPHIS        PTSUNNY   65  57  75 NW13G20   29.90R
NASHVILLE      TSTM      61  57  87 W10G16    29.82R

......ARKANSAS.......

CITY           SKY/WX    TMP DP  RH WIND       PRES   REMARKS
FAYETTEVILLE   SUNNY     48  31  51 NW16G23   30.12R
FT SMITH       SUNNY     53  31  42 W17       30.13R
LITTLE ROCK    MOSUNNY   60  44  55 NW15G28   30.00R

......OKLAHOMA.......

CITY           SKY/WX    TMP DP  RH WIND       PRES   REMARKS
TULSA          SUNNY     51  22  31 NW13      30.17R
PONCA CITY     SUNNY     47  18  31 NW14G23   30.20R
MCALESTER      SUNNY     53  26  35 N15G24    30.19R
OKLAHOMA CITY  MOSUNNY   50  16  25 N18       30.22R

......IOWA............

CITY           SKY/WX    TMP DP  RH WIND       PRES   REMARKS
DES MOINES     FLURRIES  36  32  85 NW21G29   29.90R WCI  25
QUAD CITIES    CLOUDY    38  33  82 W25G35    29.71R WCI  27

......ILLINOIS........

CITY           SKY/WX    TMP DP  RH WIND       PRES   REMARKS
QUINCY         CLOUDY    41  34  76 W23G33    29.84R
CHICAGO        LGT RAIN  40  38  93 NW10      29.53R FOG     WCI  33




USA.gov is the U.S. government's official web portal to all federal, state and local government web resources and services.